Charlottesville, VA

5:08 AM EDT on June 23, 2018 (GMT -0400)
Charlottesville-Albemarle

Weather History for KCHO - June, 2014

Change the Weather History Date:

Monday, June 23, 2014

  Actual Average Record
Temperature  
Mean Temperature 72 °F 74 °F  
Max Temperature 81 °F 85 °F 98 °F (1911)
Min Temperature 62 °F 63 °F 49 °F (1992)
Degree Days  
Heating Degree Days 0 0  
Month to date heating degree days 2 8  
Since 1 June heating degree days 2 8  
Since 1 July heating degree days 4591 4441  
Cooling Degree Days 7 9  
Month to date cooling degree days 197 152  
Year to date cooling degree days 313 238  
Since 1 June cooling degree days 197 152  
Growing Degree Days 22 (Base 50)    
Moisture  
Dew Point 62 °F    
Average Humidity 73    
Maximum Humidity 100    
Minimum Humidity 45    
Precipitation  
Precipitation 0.00 in 0.11 in 2.96 in (2006)
Month to date precipitation 2.51 2.96  
Year to date precipitation 20.78 19.43  
Sea Level Pressure  
Sea Level Pressure 30.07 in    
Wind  
Wind Speed 6 mph (South)    
Max Wind Speed 14 mph    
Max Gust Speed 19 mph    
Visibility 7 miles    
Events      
T = Trace of Precipitation, MM = Missing Value Source: NWS Daily Summary

Daily Weather History Graph

Daily Weather History Graph

Search for Another Location

Airport or City:

Astronomy

Jun. 23, 2014 Rise Set
Actual Time 5:51 AM EDT 8:40 PM EDT
Civil Twilight 5:19 AM EDT 9:12 PM EDT
Nautical Twilight 4:40 AM EDT 9:51 PM EDT
Astronomical Twilight 3:55 AM EDT 10:36 PM EDT
Moon 3:13 AM EDT 5:22 PM EDT
Length of Visible Light 15h 52m
Length of Day
14h 49m
Waning Crescent, 13% of the Moon is Illuminated
Jun 23
Waning Crescent
Jun 27
New
Jul 5
First Quarter
Jul 12
Full
Jul 18
Last Quarter

Hourly Weather History & Observations

Time (EDT) Temp. Heat Index Dew Point Humidity Pressure Visibility Wind Dir Wind Speed Gust Speed Precip Events Conditions
12:53 AM 66.0 °F - 64.0 °F 93% 30.02 in 10.0 mi Calm Calm - N/A   Partly Cloudy
1:53 AM 66.0 °F - 64.0 °F 93% 30.02 in 10.0 mi West 3.5 mph - N/A   Overcast
2:53 AM 64.9 °F - 63.0 °F 93% 30.02 in 6.0 mi Calm Calm - N/A   Scattered Clouds
3:53 AM 64.0 °F - 63.0 °F 96% 30.02 in 5.0 mi Calm Calm - N/A   Clear
4:23 AM 64.0 °F - 63.0 °F 96% 30.04 in 2.5 mi Calm Calm - N/A   Partly Cloudy
4:30 AM 64.0 °F - 63.0 °F 96% 30.05 in 1.0 mi Calm Calm - N/A   Mist
4:38 AM 63.0 °F - 62.1 °F 97% 30.05 in 1.5 mi Calm Calm - N/A   Scattered Clouds
4:44 AM 63.0 °F - 62.1 °F 97% 30.05 in 3.0 mi Calm Calm - N/A   Mostly Cloudy
4:53 AM 63.0 °F - 62.1 °F 97% 30.03 in 5.0 mi Calm Calm - N/A   Mostly Cloudy
5:44 AM 64.0 °F - 63.0 °F 96% 30.05 in 1.8 mi Calm Calm - N/A   Overcast
5:53 AM 63.0 °F - 63.0 °F 100% 30.04 in 1.5 mi Calm Calm - N/A   Mostly Cloudy
6:03 AM 63.0 °F - 62.1 °F 97% 30.06 in 2.5 mi Calm Calm - N/A   Mostly Cloudy
6:12 AM 64.0 °F - 63.0 °F 96% 30.07 in 1.2 mi Calm Calm - N/A   Mostly Cloudy
6:18 AM 64.0 °F - 62.1 °F 93% 30.07 in 3.0 mi Calm Calm - N/A   Mostly Cloudy
6:27 AM 64.0 °F - 63.0 °F 96% 30.07 in 3.0 mi Calm Calm - N/A   Mostly Cloudy
6:53 AM 64.9 °F - 64.0 °F 97% 30.07 in 5.0 mi Calm Calm - N/A   Overcast
7:08 AM 66.0 °F - 64.0 °F 93% 30.10 in 6.0 mi Calm Calm - N/A   Overcast
7:20 AM 66.9 °F - 64.9 °F 93% 30.10 in 9.0 mi Calm Calm - N/A   Overcast
7:53 AM 68.0 °F - 64.9 °F 90% 30.09 in 10.0 mi South 5.8 mph - N/A   Overcast
8:53 AM 71.1 °F - 64.0 °F 78% 30.11 in 10.0 mi SSW 4.6 mph - N/A   Clear
9:53 AM 73.9 °F - 64.0 °F 71% 30.11 in 10.0 mi ESE 4.6 mph - N/A   Scattered Clouds
10:53 AM 75.9 °F - 60.1 °F 58% 30.11 in 10.0 mi South 6.9 mph - N/A   Scattered Clouds
11:53 AM 78.1 °F - 60.1 °F 54% 30.11 in 10.0 mi Variable 5.8 mph - N/A   Scattered Clouds
12:53 PM 78.1 °F - 59.0 °F 52% 30.11 in 10.0 mi SSE 5.8 mph - N/A   Clear
1:53 PM 80.1 °F 80.6 °F 57.9 °F 47% 30.10 in 10.0 mi South 13.8 mph - N/A   Scattered Clouds
2:53 PM 79.0 °F - 57.9 °F 48% 30.10 in 10.0 mi SSE 11.5 mph - N/A   Overcast
4:53 PM 80.1 °F 80.9 °F 60.1 °F 50% 30.09 in 10.0 mi SSE 8.1 mph - N/A   Mostly Cloudy
6:53 PM 79.0 °F - 61.0 °F 54% 30.06 in 10.0 mi South 9.2 mph - N/A   Clear
7:53 PM 77.0 °F - 62.1 °F 60% 30.07 in 10.0 mi South 6.9 mph - N/A   Clear
8:53 PM 73.0 °F - 63.0 °F 71% 30.08 in 10.0 mi South 4.6 mph - N/A   Mostly Cloudy
9:53 PM 73.9 °F - 63.0 °F 68% 30.11 in 10.0 mi SE 4.6 mph - N/A   Scattered Clouds
10:53 PM 72.0 °F - 61.0 °F 68% 30.12 in 10.0 mi South 9.2 mph - N/A   Scattered Clouds
11:53 PM 70.0 °F - 60.1 °F 71% 30.12 in 10.0 mi SSW 4.6 mph - N/A   Clear